Location: Tamazert
(32.6352°N, 5.2072°W)
Time: 17:27:59
(UTC+00:00)

Transit 2A Rocket - Pass Details

Date: 12 October 2022
Orbit: 589 x 912 km, 66.7° (Epoch: 07 December)

Event Time Altitude Azimuth Distance (km) Brightness Sun altitude
Rises 14:31:37 0° 307° (NW) 3,175 8.3 37.2°
Reaches altitude 10° 14:35:15 10° 281° (W) 2,325 8.1 36.6°
Maximum altitude 14:37:36 13° 254° (WSW) 2,162 8.5 36.2°
Drops below altitude 10° 14:40:02 10° 228° (SW) 2,413 9.0 35.8°
Sets 14:43:59 0° 202° (SSW) 3,410 9.1 35.2°
